{"data":{"norad_id":39425,"intl_designator":"2013-066K","name":"APRIZESAT 8","alt_names":[],"object_type":"PAYLOAD","status":"ACTIVE","operator":null,"country":"US","launch_date":"2013-11-21","launch_site_code":"DLS","launch_vehicle":null,"mission":null,"orbit_class":"UNKNOWN","rcs_meters":0.1186,"size_class":null,"mass_kg":null,"dimensions":null,"purposes":["tech_demo"],"wikipedia_slug":null,"has_3d_model":false,"image_url":null,"decayed_at":null,"tle_current":{"epoch":"2026-09-20T02:38:06.726048Z","epoch_age_seconds":48009,"freshness":"FRESH","line1":"1 39425U 13066K   26263.10980007  .00000732  00000+0  84969-4 0  9994","line2":"2 39425  97.8304 209.2960 0045172 335.3898  24.5163 14.87802529693782","mean_motion":14.87802529,"eccentricity":0.0045172,"inclination_deg":97.8304,"raan_deg":209.296,"arg_perigee_deg":335.3898,"mean_anomaly_deg":24.5163,"bstar":8.4969e-5,"rev_number":69378,"period_min":96.787038059941,"perigee_km":573.2597032371,"apogee_km":636.34637673435,"semimajor_km":6982.9400399857,"source":"CELESTRAK","updated_at":"2026-09-20T09:00:47.444494Z"}}}